Weather History for Las Vegas, NM

Change the Weather History Date:

Thursday, September 27, 2012

  Actual Average Record
Temperature  
Mean Temperature 56 °F -  
Max Temperature 69 °F 72 °F 86 °F (1998)
Min Temperature 43 °F 42 °F 30 °F (1970)
Degree Days  
Heating Degree Days 9    
Growing Degree Days 6 (Base 50)    
Moisture  
Dew Point 44 °F    
Average Humidity 65    
Maximum Humidity 86    
Minimum Humidity 40    
Precipitation  
Precipitation 0.57 in - - ()
Sea Level Pressure  
Sea Level Pressure 30.05 in    
Wind  
Wind Speed 11 mph (South)    
Max Wind Speed 22 mph    
Max Gust Speed 28 mph    
Visibility 9 miles    
Events Rain , Thunderstorm    
Averages and records for this station are not official NWS values.
T = Trace of Precipitation, MM = Missing Value Source: NWS Daily Summary

Daily Weather History Graph

Daily Weather History Graph

Search for Another Location

Airport:

Trip Planner

Search our weather history database for the weather conditions in past years. The results will help you decide how hot, cold, wet, or windy it might be!

Date:

Astronomy

Sep. 27, 2012 Rise Set
Actual Time 6:52 AM MDT 6:49 PM MDT
Civil Twilight 6:27 AM MDT 7:14 PM MDT
Nautical Twilight 5:57 AM MDT 7:44 PM MDT
Astronomical Twilight 5:27 AM MDT 8:14 PM MDT
Moon 5:19 PM MDT (9/27) 4:28 AM MDT (9/27)
Length of Visible Light 12h 47m
Length of Day
11h 56m
Waxing Gibbous, 94% of the Moon is Illuminated
Sep 27
Waxing Gibbous
Sep 29
Full
Oct 8
Last Quarter
Oct 15
New
Oct 21
First Quarter

Hourly Weather History & Observations

Time (MDT) Temp. Windchill Dew Point Humidity Pressure Visibility Wind Dir Wind Speed Gust Speed Precip Events Conditions
12:53 AM 52.0 °F - 35.1 °F 53% 29.96 in 10.0 mi SSW 12.7 mph - N/A   Clear
1:53 AM 53.1 °F - 37.0 °F 55% 29.96 in 10.0 mi SSW 12.7 mph - N/A   Mostly Cloudy
2:53 AM 50.0 °F - 36.0 °F 59% 29.97 in 10.0 mi South 3.5 mph - N/A   Scattered Clouds
3:53 AM 46.9 °F - 37.0 °F 68% 29.98 in 10.0 mi Calm Calm - N/A   Clear
4:53 AM 46.0 °F 41.9 °F 33.1 °F 61% 29.98 in 10.0 mi NNW 8.1 mph - N/A   Clear
6:53 AM 43.0 °F 38.8 °F 32.0 °F 65% 30.06 in 10.0 mi NNE 6.9 mph - N/A   Clear
7:53 AM 48.9 °F - 35.1 °F 59% 30.06 in 10.0 mi East 6.9 mph - N/A   Clear
8:53 AM 52.0 °F - 41.0 °F 66% 30.09 in 10.0 mi NE 6.9 mph - N/A   Scattered Clouds
9:53 AM 59.0 °F - 42.1 °F 53% 30.07 in 10.0 mi SSE 6.9 mph - N/A   Clear
10:53 AM 64.0 °F - 41.0 °F 43% 30.06 in 10.0 mi SSW 8.1 mph - N/A   Clear
12:27 PM 69.8 °F - 44.6 °F 40% 30.27 in 10.0 mi SSE 18.4 mph 25.3 mph N/A Thunderstorm Clear
12:53 PM 66.9 °F - 45.0 °F 45% 30.00 in 10.0 mi South 19.6 mph 26.5 mph N/A Thunderstorm Partly Cloudy
1:50 PM 66.2 °F - 46.4 °F 49% 30.25 in - South 21.9 mph 27.6 mph N/A Thunderstorm Thunderstorm
1:53 PM 64.9 °F - 46.0 °F 50% 29.99 in 10.0 mi South 15.0 mph 27.6 mph 0.00 in Rain , Thunderstorm Light Thunderstorms and Rain
2:53 PM 61.0 °F - 45.0 °F 56% 30.00 in 2.5 mi Calm Calm - 0.24 in Rain , Thunderstorm Heavy Rain
3:28 PM 53.6 °F - 48.2 °F 82% 30.24 in 3.0 mi South 9.2 mph 20.7 mph 0.33 in Rain Rain
3:53 PM 55.9 °F - 51.1 °F 84% 30.03 in 10.0 mi SE 20.7 mph - 0.33 in   Scattered Clouds
4:43 PM 60.8 °F - 53.6 °F 77% 30.22 in 10.0 mi SSE 20.7 mph - N/A Thunderstorm Partly Cloudy
4:53 PM 62.1 °F - 53.1 °F 72% 30.00 in 10.0 mi SSE 20.7 mph - N/A   Clear
5:53 PM 62.1 °F - 53.1 °F 72% 30.00 in 10.0 mi SSE 11.5 mph - N/A   Clear
6:53 PM 59.0 °F - 51.1 °F 75% 30.03 in 10.0 mi South 13.8 mph - N/A   Clear
7:53 PM 55.0 °F - 51.1 °F 86% 30.04 in 10.0 mi SSW 11.5 mph - N/A   Clear
8:53 PM 55.0 °F - 48.9 °F 80% 30.04 in 10.0 mi SW 9.2 mph - N/A   Clear
9:53 PM 54.0 °F - 48.0 °F 80% 30.03 in 10.0 mi SSW 11.5 mph - N/A   Clear
10:53 PM 54.0 °F - 46.9 °F 77% 30.01 in 10.0 mi SSW 11.5 mph - N/A   Clear
11:53 PM 52.0 °F - 46.9 °F 83% 30.01 in 10.0 mi South 10.4 mph - N/A   Clear